Regional Weather Roundup
Issued by NWS Bismarck, ND

Home | Current Version | Previous Version | Text Only | Print | Product List | Glossary On
Versions: 1 2 3 4 5 6 7 8 9 10 11 12 13 14 15 16 17 18 19 20 21 22 23 24 25 26 27 28 29 30 31 32 33 34 35 36 37 38 39 40 41 42 43 44 45 46 47 48 49 50
000
ASUS43 KBIS 251602
RWRBIS

NWR BROADCAST TEXT
NATIONAL WEATHER SERVICE BISMARCK ND
1000 AM CST SAT FEB 25 2017

NOTE: "FAIR" INDICATES FEW OR NO CLOUDS BELOW 12,000 FEET WITH NO
SIGNIFICANT WEATHER AND/OR OBSTRUCTIONS TO VISIBILITY.


CITY           SKY/WX    TMP DP  RH WIND       PRES   REMARKS
WILLISTON      LGT SNOW  19  17  92 CALM      29.89F FOG
MINOT          CLOUDY    22  17  81 W14       29.87F WCI   9
MINOT AFB      NOT AVBL
BISMARCK       LGT SNOW  24  21  88 W3        29.88F VSB 1
DICKINSON      CLOUDY    22  19  89 NW10      29.83F WCI  11
GARRISON         N/A     22  18  85 NW9       29.87F WCI  12
HETTINGER ARPT CLOUDY    26  23  88 W12       29.85F WCI  16
JAMESTOWN      CLOUDY    25  19  78 W12       29.85F WCI  14
CARRINGTON     CLOUDY    25  23  93 NW15      29.87F WCI  12
HAZEN          HVY SNOW N/A N/A N/A N10       29.91S
MANDAN         LGT SNOW  23  23 100 NW7       29.87F WCI  15
STANLEY        CLOUDY    19  19 100 NW13      29.87F WCI   7
$$

CITY           SKY/WX    TMP DP  RH WIND       PRES   REMARKS
GRAND FORKS    CLOUDY    27  17  66 W10       29.85F WCI  17
GRAND FORKS AF FAIR      28  20  73 W12       29.84F WCI  18
DEVILS LAKE    CLOUDY    21  19  92 NW15      29.84F WCI   8
FARGO          CLOUDY    25  18  74 SW13      29.89F WCI  14
CAVALIER         N/A     23  19  86 NW10      29.84F WCI  12
GRAFTON        FAIR      23  19  86 NW12      29.86F WCI  12
GWINNER        CLOUDY    28  23  80 SW15      29.90F WCI  17
ROLLA          FLURRIES  16  16 100 NW21      29.82F WCI  -2
$$

CITY           SKY/WX    TMP DP  RH WIND       PRES   REMARKS
ABERDEEN       FAIR      28  17  63 SW15      29.93F WCI  16
MOBRIDGE       FAIR      29  17  61 SW6       29.87F
BUFFALO          N/A     29  21  72 W18       29.78F WCI  16
RAPID CITY     PTSUNNY   27  16  63 W3        29.88F
GLASGOW        CLOUDY    23  21  92 SW7       29.85S WCI  15
SIDNEY         CLOUDY    22  20  92 S6        29.90F WCI  14
WOLF POINT     LGT SNOW  20  16  84 NW3       29.88F FOG
GLENDIVE       CLOUDY    24  21  88 SW5       29.88F WCI  18
MILES CITY     PTSUNNY   26  21  81 W7        29.89F WCI  18
BAKER          CLOUDY    24  21  88 W16G22    29.87F WCI  11
$$

CITY           SKY/WX    TMP DP  RH WIND       PRES   REMARKS
BILLINGS       PTSUNNY   23  19  85 SW12      29.88F WCI  12
GREAT FALLS    FAIR      25  12  58 SW20G26   29.82F WCI  11
$$




USA.gov is the U.S. government's official web portal to all federal, state and local government web resources and services.